{"data":{"norad_id":67908,"intl_designator":"2026-036E","name":"STARLINK-36827","alt_names":[],"object_type":"PAYLOAD","status":"ACTIVE","operator":null,"country":"US","launch_date":"2026-02-22","launch_site_code":"AFETR","launch_vehicle":null,"mission":null,"orbit_class":"UNKNOWN","rcs_meters":null,"size_class":null,"mass_kg":null,"dimensions":null,"purposes":["comms"],"wikipedia_slug":null,"has_3d_model":false,"image_url":null,"decayed_at":null,"tle_current":{"epoch":"2026-09-19T06:14:33.237024Z","epoch_age_seconds":170336,"freshness":"FRESH","line1":"1 67908U 26036E   26262.26010691  .00009742  00000+0  36298-3 0  9992","line2":"2 67908  42.9992 232.2988 0001412 266.7066  93.3624 15.27587063 33324","mean_motion":15.27587063,"eccentricity":0.0001412,"inclination_deg":42.9992,"raan_deg":232.2988,"arg_perigee_deg":266.7066,"mean_anomaly_deg":93.3624,"bstar":0.00036298,"rev_number":3332,"period_min":94.266312858922,"perigee_km":482.05915046773,"apogee_km":483.99674344875,"semimajor_km":6861.1649469582,"source":"CELESTRAK","updated_at":"2026-09-20T09:00:43.701629Z"}}}